Simultaneous Nadir Overpasses (SNOs) Predictions

Prediction of SNOs between GOES-16 and LANDSAT-8 Satellite Orbit:

Table of predicted SNOs for the next 14.0 days since TLE Epoch: 8/3/2019
Index Date Time (GOES-16) GOES-16 Lat,Lon LANDSAT-8 Lat,Lon Distance(km) Time Diff (sec)
1 08/04/2019 15:06:35 -0.00, -75.24 -0.29, -73.91 151.23 80
2 08/05/2019 03:30:38 -0.00, -75.25 -0.85, -79.10 438.25 80
3 08/06/2019 14:54:25 -0.00, -75.27 -0.94, -70.96 490.18 80
4 08/07/2019 03:18:28 -0.00, -75.28 -0.19, -76.15 99.13 80
5 08/09/2019 03:03:39 -0.00, -75.31 0.47, -73.20 240.53 80
6 08/09/2019 15:27:33 0.01, -75.32 0.67, -78.34 344.77 80
7 08/11/2019 15:15:23 0.01, -75.35 0.01, -75.40 4.56 80
8 08/13/2019 15:00:33 0.00, -75.40 -0.65, -72.45 336.25 80
9 08/14/2019 03:24:37 -0.01, -75.41 -0.48, -77.63 252.46 80
10 08/16/2019 03:09:47 -0.01, -75.46 0.19, -74.68 89.25 80
11 08/16/2019 15:33:42 0.01, -75.48 0.96, -79.83 495.51 80




NCC Satellite Simultaneous Nadir Overpasses (SNOs) Prediction Service
